Tracking 34142 objects as of 17-May-2026
HD Live streaming from Space Station
objects crossing your sky now

CSC-2

Track CSC-2 now!
10-day predictions
CSC-2 is classified as:


NORAD ID: 58021
Int'l Code: 2023-155F
Perigee: 506.4 km
Apogee: 512.3 km
Inclination: 97.5 °
Period: 94.7 minutes
Semi major axis: 6880 km
RCS: Unknown
Launch date: October 9, 2023
Source: Netherlands (NETH)
Launch site: FRENCH GUIANA (FRGUI)

Uplink (MHz):
Downlink (MHz): 401.250
Beacon (MHz):
Mode: 1200bps BPSK
Call sign: CSC2
Status: Unknown

Your satellite tracking list
Your tracking list is empty




NASA's NSSDC Master Catalog

Two Line Element Set (TLE):
1 58021U 23155F   26137.48713130  .00006768  00000-0  30639-3 0  9999
2 58021  97.5432 214.0870 0004308   2.0066 358.1185 15.21211159143512
Source of the keplerian elements: AFSPC